Weather History for KUGN - June, 2013

Change the Weather History Date:

Saturday, June 15, 2013

  Actual Average Record
Temperature  
Mean Temperature 63 °F -  
Max Temperature 74 °F 76 °F 86 °F (2012)
Min Temperature 51 °F 56 °F 51 °F (2009)
Degree Days  
Heating Degree Days 2 3  
Month to date heating degree days 86 66  
Since 1 June heating degree days 86 66  
Since 1 July heating degree days 6674 6817  
Cooling Degree Days 0 3  
Month to date cooling degree days 10 33  
Year to date cooling degree days 57 58  
Since 1 June cooling degree days 10 33  
Growing Degree Days 12 (Base 50)    
Moisture  
Dew Point 59 °F    
Average Humidity 83    
Maximum Humidity 93    
Minimum Humidity 73    
Precipitation  
Precipitation 0.13 in 0.13 in 1.20 in (2015)
Month to date precipitation 1.56 2.21  
Year to date precipitation 15.42 15.07  
Sea Level Pressure  
Sea Level Pressure 29.95 in    
Wind  
Wind Speed 6 mph (SSE)    
Max Wind Speed 15 mph    
Max Gust Speed 25 mph    
Visibility 8 miles    
Events Rain , Thunderstorm    
T = Trace of Precipitation, MM = Missing Value Source: NWS Daily Summary

Daily Weather History Graph

Daily Weather History Graph

Search for Another Location

Airport or City:

Trip Planner

Search our weather history database for the weather conditions in past years. The results will help you decide how hot, cold, wet, or windy it might be!

Date:

Astronomy

Jun. 15, 2013 Rise Set
Actual Time 5:13 AM CDT 8:30 PM CDT
Civil Twilight 4:39 AM CDT 9:05 PM CDT
Nautical Twilight 3:54 AM CDT 9:50 PM CDT
Astronomical Twilight 2:59 AM CDT 10:45 PM CDT
Moon 11:55 AM CDT (6/15) No Moon Set
Length of Visible Light 16h 26m
Length of Day
15h 16m
Waxing Crescent, 40% of the Moon is Illuminated
Jun 15
Waxing Crescent
Jun 16
First Quarter
Jun 23
Full
Jun 29
Last Quarter
Jul 8
New

Hourly Weather History & Observations

Time (CDT) Temp. Dew Point Humidity Pressure Visibility Wind Dir Wind Speed Gust Speed Precip Events Conditions
12:52 AM 51.1 °F 48.9 °F 92% 30.04 in 10.0 mi Calm Calm - N/A   Clear
1:52 AM 54.0 °F 48.9 °F 83% 30.02 in 10.0 mi Calm Calm - N/A   Partly Cloudy
2:52 AM 53.1 °F 50.0 °F 89% 30.02 in 10.0 mi Calm Calm - N/A   Clear
3:52 AM 55.0 °F 51.1 °F 86% 30.03 in 10.0 mi Calm Calm - N/A   Partly Cloudy
4:52 AM 57.0 °F 52.0 °F 83% 30.05 in 10.0 mi Calm Calm - 0.00 in Rain Light Rain
5:52 AM 57.0 °F 55.0 °F 93% 30.04 in 7.0 mi Calm Calm - 0.02 in   Overcast
6:52 AM 59.0 °F 55.9 °F 90% 30.02 in 7.0 mi Calm Calm - 0.00 in   Partly Cloudy
7:52 AM 59.0 °F 57.0 °F 93% 30.00 in 5.0 mi East 5.8 mph - N/A   Overcast
8:52 AM 59.0 °F 54.0 °F 83% 29.99 in 10.0 mi Calm Calm - 0.00 in   Mostly Cloudy
9:52 AM 60.1 °F 57.0 °F 90% 29.98 in - North - - 0.03 in   Unknown
10:52 AM 64.0 °F 61.0 °F 90% 29.97 in 6.0 mi SSW 9.2 mph - 0.02 in Rain Light Rain
11:52 AM 69.1 °F 62.1 °F 78% 29.98 in 8.0 mi SW 3.5 mph - 0.00 in   Unknown
12:52 PM 72.0 °F 64.9 °F 78% 29.98 in 9.0 mi Variable 3.5 mph - N/A   Scattered Clouds
1:52 PM 64.0 °F 59.0 °F 84% 29.98 in 7.0 mi NE 9.2 mph - N/A   Scattered Clouds
2:52 PM 66.9 °F 62.1 °F 84% 29.98 in 7.0 mi East 8.1 mph - N/A   Clear
3:52 PM 66.0 °F 61.0 °F 84% 29.95 in 5.0 mi ESE 8.1 mph - N/A   Haze
4:52 PM 69.1 °F 62.1 °F 78% 29.91 in 8.0 mi SE 10.4 mph - N/A   Clear
5:52 PM 69.1 °F 61.0 °F 75% 29.87 in 10.0 mi SE 12.7 mph - N/A   Clear
6:52 PM 68.0 °F 60.1 °F 76% 29.86 in 10.0 mi SSE 11.5 mph - N/A   Clear
7:52 PM 66.9 °F 61.0 °F 81% 29.84 in 10.0 mi SE 6.9 mph - N/A   Clear
8:52 PM 66.9 °F 62.1 °F 84% 29.83 in 10.0 mi SSE 4.6 mph - N/A   Clear
9:39 PM 69.8 °F 62.6 °F 78% 29.89 in 10.0 mi Variable 4.6 mph - N/A Thunderstorm Mostly Cloudy
9:52 PM 70.0 °F 66.0 °F 87% 29.86 in 3.0 mi SSW 10.4 mph - 0.05 in Rain , Thunderstorm Heavy Thunderstorms and Rain
10:21 PM 71.6 °F 68.0 °F 88% 29.87 in 10.0 mi SW 9.2 mph - 0.01 in Rain Light Rain
10:52 PM 72.0 °F 68.0 °F 87% 29.83 in 10.0 mi Variable 6.9 mph - 0.01 in   Partly Cloudy
11:52 PM 73.0 °F 68.0 °F 84% 29.81 in 10.0 mi SW 9.2 mph 21.9 mph N/A   Clear